Location: De Wieken
(53.1104°N, 6.1126°E)
Time: 15:42:35
(UTC+00:00)

Daily predictions for brighter satellites

Satellite Brightness Start Highest point End
(mag) Time Altitude Azimuth Time Altitude Azimuth Time Altitude Azimuth
Cosmos 2084 3.7 20:40:07 10° SSW 20:44:00 41° SE 20:47:45 10° ENE
SPOT 3 Rocket 3.6 20:39:35 10° SSE 20:44:47 79° ENE 20:50:02 10° NNW
NOSS 2-2 (E) 3.0 20:48:26 10° SSW 20:51:29 42° SE 20:54:31 10° ENE
NOSS 2-2 (C) 2.6 20:48:41 10° SW 20:51:48 65° SE 20:54:59 10° NE
Nadezhda 3 Rocket 4.2 20:45:59 10° NNW 20:52:08 73° W 20:58:15 10° S
SeaSat 1 4.2 20:49:36 10° E 20:53:30 24° NE 20:57:25 10° NNW
Cosmos 1544 Rocket 3.8 20:49:17 10° N 20:53:35 58° ENE 20:57:50 10° SSE
Landsat 4 3.6 20:50:15 10° SSE 20:53:38 65° ENE 20:57:03 10° N
In-Cosmos 22 Rocket 4.2 20:48:18 10° S 20:54:00 75° E 20:59:37 10° NNE
BREEZE-M DEB (TANK) 4.1 20:51:49 10° W 20:54:36 36° S 21:01:24 10° SE
NOSS 2-3 (E) 3.4 20:54:07 10° SSW 20:57:41 51° SE 21:01:46 10° NE
Cosmos 1844 4.1 20:52:47 10° SW 20:58:35 73° NW 21:04:22 10° NNE
Terra 2.3 20:54:04 10° S 20:58:44 61° WSW 21:03:26 10° NNW
SL-8 Rocket 4.4 20:56:29 10° SSE 21:02:26 48° E 21:08:27 10° NNE
USA 305 2.7 21:02:06 10° W 21:05:54 70° N 21:09:17 10° E
ATLAS CENTAUR R/B 2.6 21:03:19 10° WNW 21:06:52 31° WSW 21:10:31 10° S
Cosmos 1437 Rocket 3.3 21:07:20 10° SSE 21:10:36 35° E 21:13:57 10° NNE
Cosmos 1833 Rocket 2.8 21:07:20 10° NNW 21:13:02 85° WSW 21:18:22 12° SSE
CENTAUR R/B 4.4 21:06:42 10° WNW 21:13:13 39° N 21:21:00 10° ENE
Cosmos 1455 Rocket 4.3 21:09:50 10° NNW 21:13:56 38° W 21:17:58 10° SSW
NOSS 2-3 (C) 3.2 21:11:46 10° SW 21:15:24 71° SE 21:19:38 10° NE
Cosmos 1975 Rocket 3.5 21:15:27 10° SSW 21:19:53 67° WNW 21:24:22 10° N
Cosmos 44 3.9 21:16:00 10° S 21:20:52 40° ESE 21:25:35 10° NE
Lacrosse 5 2.0 21:17:45 10° WSW 21:22:50 82° NNW 21:27:55 10° ENE
Cosmos 962 Rocket 4.5 21:16:38 10° S 21:22:50 81° E 21:29:01 10° NNE
Cosmos 220 Rocket 4.4 21:20:18 10° NNW 21:24:22 55° WSW 21:28:09 12° S
ERS-1 Rocket 4.3 21:20:06 10° SSW 21:24:39 34° W 21:29:14 10° NNW
Spot 2 Rocket 4.4 21:20:41 10° S 21:25:34 44° W 21:30:28 10° NNW
Cosmos 2082 Rocket 2.9 21:20:48 10° NNW 21:26:15 47° NE 21:31:38 10° ESE
Cosmos 1606 Rocket 4.4 21:22:31 10° N 21:26:36 38° ENE 21:29:59 14° SE
USA 307 2.7 21:25:14 10° W 21:29:09 77° N 21:32:51 10° E
NOSS 2-2 (D) 2.7 21:26:05 10° SW 21:29:15 86° NW 21:32:29 10° NE
ATLAS 5 CENTAUR R/B 2.7 21:26:08 10° WSW 21:29:25 39° NNW 21:33:12 10° NE
Landsat 5 3.7 21:25:27 10° NNE 21:29:50 61° ESE 21:34:09 10° S
Cosmos 2218 Rocket 4.1 21:23:55 10° S 21:29:56 61° E 21:36:01 10° NNE
Cosmos 1606 3.8 21:31:05 10° NNW 21:34:22 36° W 21:37:38 10° SSW
Cosmos 1844 Rocket 4.1 21:29:34 10° WSW 21:34:49 41° NW 21:40:06 10° NNE
Cosmos 2278 Rocket 3.0 21:31:13 12° SSE 21:35:42 32° ESE 21:40:41 10° NE
MetOp-A 3.8 21:35:01 13° S 21:39:11 74° WSW 21:43:29 10° NNW
Cosmos 2298 Rocket 4.1 21:34:42 10° S 21:39:58 64° ESE 21:45:15 10° NNE
ULPM Upper Stage 3.4 21:35:48 10° NW 21:40:06 53° NNE 21:44:23 10° ESE
Cosmos 614 Rocket 4.0 21:35:19 10° NNW 21:40:24 77° WSW 21:44:35 15° SSE
Cosmos 2341 Rocket 4.1 21:34:37 10° S 21:40:54 87° ESE 21:47:19 10° N
CZ-2C R/B 4.5 21:38:47 10° NNE 21:43:04 37° E 21:46:20 16° SSE
H-2A R/B 3.7 21:44:33 13° ESE 21:47:27 29° ENE 21:50:47 10° N
CZ-4C R/B 3.4 21:43:36 10° NW 21:49:56 54° NNE 21:57:50 10° ESE
Cosmos 1536 Rocket 3.5 21:47:10 13° S 21:51:03 77° E 21:55:22 10° NNE
ISS -3.9 21:50:30 10° W 21:53:48 67° S 21:57:07 10° ESE
Cosmos 2058 Rocket 4.2 21:50:27 10° N 21:54:22 31° ENE 21:57:25 15° SE
COSMOS 2406 3.6 21:50:17 10° NNW 21:55:56 59° NE 22:00:48 14° SE
USA 290 3.4 21:58:14 21° SE 21:59:19 26° ESE 22:02:03 10° NE
ARIANE 5 R/B 2.6 21:58:54 18° SSE 22:02:08 79° ENE 22:06:39 10° NNW
Cosmos 1269 Rocket 4.0 21:57:46 10° NNW 22:03:07 84° ENE 22:07:06 18° SSE
BREEZE-M DEB (TANK) 4.3 21:54:34 10° WNW 22:03:29 28° SW 22:06:11 16° S
Cosmos 1727 Rocket 4.1 21:57:21 10° N 22:03:45 83° E 22:08:48 17° SSE
Cosmos 2228 4.1 22:00:33 10° NNW 22:04:27 38° W 22:08:06 11° SSW
ATLAS 3B R/B 3.7 22:01:26 16° SSE 22:06:09 31° ESE 22:12:37 10° NE
Geosat 4.3 22:03:43 10° NNE 22:08:43 69° NW 22:13:41 10° SW
NOSS 8 (E) 4.4 22:08:09 10° NW 22:11:06 68° NE 22:13:29 18° ESE
Cosmos 1943 Rocket 2.8 22:08:20 18° SSE 22:12:04 38° ESE 22:17:14 10° NE
Cosmos 1821 Rocket 4.0 22:09:49 15° S 22:15:12 78° E 22:21:36 10° NNE
USA 281 3.9 22:09:57 10° ESE 22:16:11 49° NE 22:22:29 10° NNW
NOSS 2-3 (D) 4.4 22:15:12 10° WSW 22:18:52 49° NNW 22:23:16 10° NE
Gbstr 26 Del rocket 3.4 22:14:52 10° W 22:19:40 78° S 22:25:40 10° E
Cosmos 2058 3.8 22:19:03 21° SE 22:21:08 34° E 22:24:52 10° NNE
Cosmos 2150 Rocket 4.4 22:16:18 10° SW 22:21:42 68° WNW 22:27:10 10° NNE
ALOS 2 3.2 22:19:19 19° SE 22:22:15 49° ENE 22:26:31 10° N
Cosmos 407 Rocket 4.2 22:19:24 10° NNW 22:24:24 46° NE 22:28:37 14° SE
Cosmos 2084 Rocket 3.3 22:21:16 10° NW 22:25:12 60° SW 22:27:21 24° SSE
Spot 4 3.9 22:23:23 21° SSE 22:26:42 74° ENE 22:31:34 10° NNW
NOSS 3-1 (C) 3.1 22:25:20 10° SSW 22:30:18 69° SE 22:36:24 10° NE
Cosmos 1544 3.1 22:30:25 27° E 22:30:25 27° E 22:32:22 10° NNE
SeaSat 1 2.4 22:26:56 20° SE 22:30:27 87° ENE 22:35:25 10° NNW
Cosmos 1932 4.4 22:26:33 10° NW 22:32:47 81° SW 22:37:30 18° SE
Cosmos 1812 2.5 22:31:06 10° NNW 22:34:39 77° W 22:36:28 27° S
Cosmos 1271 Rocket 4.4 22:33:32 16° ESE 22:34:57 20° E 22:37:45 10° NE
USA 305 2.1 22:34:39 10° WNW 22:38:16 89° SSW 22:40:35 17° ESE
Cosmos 1238 Rocket 3.0 22:36:56 10° N 22:40:11 49° ENE 22:42:01 25° SE
PSLV R/B 3.8 22:38:22 10° NNE 22:42:23 86° ESE 22:44:51 23° SSW
Aureole 2 4.3 22:41:11 22° SSW 22:43:03 81° WNW 22:46:32 10° NNE
BREEZE-M R/B 4.1 22:38:37 10° WSW 22:43:14 61° SSE 22:59:55 10° E
Cosmos 2251 Rocket 3.9 22:41:41 10° NNW 22:47:01 59° ENE 22:51:01 17° SE
Cosmos 1892 Rocket 3.5 22:45:05 22° S 22:47:55 87° E 22:52:24 10° NNE
Cosmos 1626 Rocket 4.5 22:48:21 22° SE 22:50:25 34° E 22:54:21 10° NNE
Cosmos 1933 4.3 22:47:14 10° N 22:50:55 36° ENE 22:53:09 20° SE
Cosmos 1140 Rocket 3.4 22:46:25 10° NNW 22:51:34 84° WSW 22:54:48 23° SSE
MINOTAUR 4 R/B 3.4 22:53:10 10° NNE 22:56:01 84° WNW 22:57:02 36° SSW
BREEZE-M DEB (TANK) 4.1 22:58:57 10° W 23:01:57 43° S 23:09:34 10° ESE
Cosmos 44 4.2 22:56:56 10° WSW 23:02:01 52° NW 23:06:52 10° NE
USA 307 2.3 22:58:40 10° WNW 23:02:30 82° SSW 23:05:32 13° ESE
Cosmos 2123 Rocket 4.1 22:57:16 10° NNW 23:03:33 77° W 23:07:51 22° S
Cosmos-2242 3.1 22:59:23 10° N 23:03:35 63° ENE 23:05:51 26° SSE
CENTAUR R/B 3.9 22:58:00 10° NW 23:05:29 55° NNE 23:14:16 10° ESE
Lacrosse 5 2.7 23:01:13 10° W 23:06:12 55° N 23:11:12 10° ENE
NOSS 3-1 (A) 3.2 23:03:57 18° SSW 23:07:44 63° SE 23:13:48 10° NE
Cosmos 2082 Rocket 2.9 23:05:04 10° NW 23:10:18 41° WSW 23:13:28 21° SSW
Cosmos 1515 3.4 23:10:01 10° N 23:13:32 76° E 23:14:57 33° SSE
ATLAS 5 CENTAUR R/B 4.3 23:11:14 10° NW 23:14:11 21° N 23:17:33 10° NE
ULPM Upper Stage 3.5 23:15:24 10° WNW 23:19:25 37° SW 23:20:59 27° S
Cosmos 2278 Rocket 2.8 23:13:57 10° SW 23:19:31 57° NW 23:25:08 10° NNE
PSLV R/B 3.8 23:15:50 10° NNE 23:20:06 59° ESE 23:22:20 27° S
Lacrosse 4 Rocket 3.5 23:20:40 12° ESE 23:21:28 12° ESE 23:23:07 10° E
Cosmos 2369 Rocket 3.3 23:19:37 20° SSE 23:22:16 29° ESE 23:27:02 10° NE
H-2A R/B 3.4 23:20:31 22° SW 23:22:19 33° W 23:25:50 10° NNW
Iridium 4 Rocket 4.3 23:22:22 10° N 23:27:55 51° E 23:31:55 19° SSE
Cosmos 489 Rocket 4.4 23:24:24 21° SSW 23:28:46 79° ESE 23:35:01 10° NNE
Cosmos 1190 Rocket 4.0 23:23:57 10° NNW 23:29:12 78° ENE 23:32:46 21° SSE
ISS -3.0 23:27:15 10° W 23:30:09 33° SSW 23:30:09 33° SSW
Cosmos 2058 Rocket 4.1 23:28:22 10° NNW 23:32:19 34° W 23:34:37 20° SW
Cosmos 1782 2.9 23:29:11 10° NNW 23:32:58 61° W 23:34:35 31° SSW
USA 290 4.1 23:30:56 10° WSW 23:33:39 27° NW 23:36:27 10° N
CRYOSAT 2 4.5 23:30:08 10° N 23:35:01 70° W 23:37:58 24° SSW
USA 229 DEB 4.1 23:32:18 23° S 23:35:40 41° ESE 23:41:57 10° NE
USA 229 4.1 23:32:27 23° S 23:35:48 41° ESE 23:42:04 10° NE
Cosmos 1378 2.7 23:33:51 10° NNW 23:37:04 70° W 23:38:07 39° S
Cosmos 1862 3.6 23:35:38 29° SSE 23:37:15 50° E 23:41:00 10° NNE
CZ-4C R/B 3.0 23:31:54 10° NW 23:38:46 65° SW 23:45:35 16° SSE
Cosmos 482 Debris 3.9 23:35:01 10° WSW 23:39:22 67° S 23:42:32 10° E
COSMOS 2455 3.3 23:33:42 10° NW 23:39:44 62° NE 23:45:42 10° SE
Meteor 2-2 Rocket 4.4 23:34:06 10° NNW 23:39:48 71° W 23:43:24 24° S
COSMOS 2406 4.2 23:35:00 10° NW 23:39:56 32° WSW 23:42:50 20° SSW
Cosmos 1934 Rocket 4.4 23:39:12 18° SSW 23:43:55 60° WNW 23:50:05 10° N
Cosmos 2221 3.1 23:40:07 10° N 23:44:15 49° ENE 23:46:52 21° SE
GRACE-FO 1 4.5 23:44:07 34° S 23:45:36 87° W 23:49:13 10° N
GRACE-FO 2 4.5 23:44:31 34° S 23:45:59 86° W 23:49:37 10° N
Cosmos 2285 Rocket 4.0 23:44:38 10° NNW 23:51:06 77° WSW 23:55:34 21° SSE
USA 81 4.4 23:48:48 10° NNW 23:53:57 56° W 23:57:04 23° SSW
